Torna al catalogo

STARLINK-34464

AttivoComunicazioniVLEO
NORAD 64664·PAYLOAD·🇺🇸 United States

Lanciato Jun 28, 2025 da Cape Canaveral Space Force Station

Loading…

Prossimi Passaggi (prossime 24 ore)

TLE

AggiornatoSource: CelesTrak SupGP

Epoca: Sep 15, 2026, 02:19 UTC

1 64664C 25139A   26258.09701389  .00061005  00000+0  18025-2 0  2583
2 64664  53.1596 323.1671 0001429  98.9170 166.6271 15.34357603    17

Traccia STARLINK-34464 in tempo reale con AllMySat

Download on the App Store